Time,TemperatureF,DewpointF,PressureIn,WindDirection,WindDirectionDegrees,WindSpeedMPH,WindSpeedGustMPH,Humidity,HourlyPrecipIn,Conditions,Clouds,dailyrainin,SoftwareType,DateUTC
2013-07-31 00:00:00,61.1,57.8,29.91,South,180,0.6,0.0,89,0.00,,BKN037,0.00,VWS V13.01,2013-07-30 14:00:00,
2013-07-31 00:15:00,60.7,57.8,29.91,South,180,0.6,0.0,90,0.00,,BKN037,0.00,VWS V13.01,2013-07-30 14:15:00,
2013-07-31 00:30:00,60.5,57.9,29.91,South,180,0.6,0.0,91,0.00,,BKN037,0.00,VWS V13.01,2013-07-30 14:30:00,
2013-07-31 00:45:00,60.2,57.6,29.91,South,180,0.6,0.0,91,0.00,,BKN037,0.00,VWS V13.01,2013-07-30 14:45:00,
2013-07-31 01:00:00,59.9,57.6,29.91,South,180,0.6,0.0,92,0.00,,BKN037,0.00,VWS V13.01,2013-07-30 15:00:00,
2013-07-31 01:15:00,59.7,57.4,29.91,South,180,0.6,0.0,92,0.00,,BKN037,0.00,VWS V13.01,2013-07-30 15:15:00,
2013-07-31 01:30:00,59.9,57.9,29.90,South,180,0.6,0.0,93,0.00,,BKN037,0.00,VWS V13.01,2013-07-30 15:30:00,
2013-07-31 01:45:00,59.9,57.9,29.90,South,180,0.6,0.0,93,0.00,,BKN037,0.00,VWS V13.01,2013-07-30 15:45:00,
2013-07-31 02:00:00,59.9,57.9,29.90,South,180,0.6,0.0,93,0.00,,BKN037,0.00,VWS V13.01,2013-07-30 16:00:00,
2013-07-31 02:15:00,60.0,58.0,29.89,SE,135,0.6,1.3,93,0.00,,BKN037,0.00,VWS V13.01,2013-07-30 16:15:00,
2013-07-31 02:30:00,60.3,58.0,29.89,SE,135,0.6,0.0,92,0.00,,BKN037,0.00,VWS V13.01,2013-07-30 16:30:00,
2013-07-31 02:45:00,60.6,57.7,29.89,SE,135,0.6,1.3,90,0.00,,BKN037,0.00,VWS V13.01,2013-07-30 16:45:00,
2013-07-31 03:00:00,60.3,57.4,29.88,SE,135,0.6,0.0,90,0.00,,BKN037,0.00,VWS V13.01,2013-07-30 17:00:00,
2013-07-31 03:15:00,59.9,57.3,29.88,SE,135,0.6,1.3,91,0.00,,BKN037,0.00,VWS V13.01,2013-07-30 17:15:00,
2013-07-31 03:30:00,59.9,57.3,29.88,SE,135,0.6,1.3,91,0.00,,BKN037,0.00,VWS V13.01,2013-07-30 17:30:00,
2013-07-31 03:45:00,60.0,57.7,29.88,SE,135,0.6,1.3,92,0.00,,BKN037,0.00,VWS V13.01,2013-07-30 17:45:00,
2013-07-31 04:00:00,60.5,57.9,29.89,ESE,112,0.6,2.5,91,0.00,,BKN037,0.00,VWS V13.01,2013-07-30 18:00:00,
2013-07-31 04:15:00,60.4,57.8,29.88,ESE,112,0.6,1.3,91,0.00,,BKN037,0.00,VWS V13.01,2013-07-30 18:15:00,
2013-07-31 04:30:00,60.4,57.8,29.88,ESE,112,0.6,1.3,91,0.00,,BKN037,0.00,VWS V13.01,2013-07-30 18:30:00,
2013-07-31 04:45:00,60.2,57.9,29.88,ESE,112,0.6,1.3,92,0.00,,BKN037,0.00,VWS V13.01,2013-07-30 18:45:00,
2013-07-31 05:00:00,60.1,57.8,29.88,ESE,112,0.6,0.0,92,0.00,,BKN037,0.00,VWS V13.01,2013-07-30 19:00:00,
2013-07-31 05:15:00,60.0,57.7,29.88,ESE,112,0.6,1.3,92,0.00,,BKN037,0.00,VWS V13.01,2013-07-30 19:15:00,
2013-07-31 05:30:00,60.0,58.0,29.89,ESE,112,0.6,0.0,93,0.00,,BKN037,0.00,VWS V13.01,2013-07-30 19:30:00,
2013-07-31 05:45:00,60.5,58.2,29.89,ESE,112,0.6,0.0,92,0.00,,BKN037,0.00,VWS V13.01,2013-07-30 19:45:00,
2013-07-31 06:00:00,60.7,58.4,29.89,SE,135,0.6,1.3,92,0.00,,BKN037,0.00,VWS V13.01,2013-07-30 20:00:00,
2013-07-31 06:15:00,61.0,58.4,29.90,SE,135,0.6,1.3,91,0.00,,BKN037,0.00,VWS V13.01,2013-07-30 20:15:00,
2013-07-31 06:30:00,61.5,59.2,29.90,SE,135,0.6,2.5,92,0.00,,BKN037,0.00,VWS V13.01,2013-07-30 20:30:00,
2013-07-31 06:45:00,62.6,59.6,29.91,SE,135,0.6,5.0,90,0.00,,BKN037,0.00,VWS V13.01,2013-07-30 20:45:00,
2013-07-31 07:05:00,63.9,60.3,29.91,SE,135,1.9,3.8,88,0.00,,BKN037,0.00,VWS V13.01,2013-07-30 21:05:00,
2013-07-31 07:10:00,65.7,61.7,29.91,SE,138,1.9,3.8,87,0.00,,BKN037,0.00,VWS V13.01,2013-07-30 21:10:00,
2013-07-31 07:15:00,66.1,61.8,29.92,SE,135,0.6,3.8,86,0.00,,SCT050,0.00,VWS V13.01,2013-07-30 21:15:00,
2013-07-31 07:20:00,66.4,61.8,29.92,SE,144,4.4,4.4,85,0.00,,SCT050,0.00,VWS V13.01,2013-07-30 21:20:00,
2013-07-31 07:25:00,66.4,61.8,29.92,SSE,149,5.6,5.6,85,0.00,,SCT050,0.00,VWS V13.01,2013-07-30 21:25:00,
2013-07-31 07:30:00,66.5,61.9,29.93,SSE,164,3.1,3.8,85,0.00,,SCT050,0.00,VWS V13.01,2013-07-30 21:30:00,
2013-07-31 07:35:00,66.6,62.0,29.92,SE,133,4.4,4.4,85,0.00,,SCT050,0.00,VWS V13.01,2013-07-30 21:35:00,
2013-07-31 07:40:00,67.1,61.8,29.93,ESE,104,6.9,6.9,83,0.00,,SCT050,0.00,VWS V13.01,2013-07-30 21:40:00,
2013-07-31 07:45:00,67.6,61.6,29.93,SE,133,4.4,4.4,81,0.00,,BKN072,0.00,VWS V13.01,2013-07-30 21:45:00,
2013-07-31 07:50:00,67.9,61.5,29.93,SE,143,1.9,3.8,80,0.00,,BKN072,0.00,VWS V13.01,2013-07-30 21:50:00,
2013-07-31 07:55:00,68.3,61.5,29.93,SSE,168,0.6,3.8,79,0.00,,BKN072,0.00,VWS V13.01,2013-07-30 21:55:00,
2013-07-31 08:00:00,68.6,61.5,29.93,SSE,148,1.9,3.8,78,0.00,,BKN072,0.00,VWS V13.01,2013-07-30 22:00:00,
2013-07-31 08:05:00,68.9,61.4,29.93,South,189,4.4,4.4,77,0.00,,BKN072,0.00,VWS V13.01,2013-07-30 22:05:00,
2013-07-31 08:10:00,69.3,61.8,29.93,SE,143,4.4,4.4,77,0.00,,BKN072,0.00,VWS V13.01,2013-07-30 22:10:00,
2013-07-31 08:15:00,69.6,62.1,29.93,SSE,147,1.9,3.8,77,0.00,,BKN068,0.00,VWS V13.01,2013-07-30 22:15:00,
2013-07-31 08:20:00,70.0,62.5,29.93,South,179,1.9,3.8,77,0.00,,BKN068,0.00,VWS V13.01,2013-07-30 22:20:00,
2013-07-31 08:25:00,70.0,62.5,29.94,SE,134,0.6,3.8,77,0.00,,BKN068,0.00,VWS V13.01,2013-07-30 22:25:00,
2013-07-31 08:30:00,70.1,62.6,29.94,SE,127,5.6,5.6,77,0.00,,BKN068,0.00,VWS V13.01,2013-07-30 22:30:00,
2013-07-31 08:35:00,70.2,62.7,29.94,SE,142,3.1,3.8,77,0.00,,BKN068,0.00,VWS V13.01,2013-07-30 22:35:00,
2013-07-31 08:40:00,70.5,63.0,29.94,SE,143,3.1,3.8,77,0.00,,BKN068,0.00,VWS V13.01,2013-07-30 22:40:00,
2013-07-31 08:47:00,71.0,63.4,29.94,SE,140,1.9,3.8,77,0.00,,BKN068,0.00,VWS V13.01,2013-07-30 22:47:00,
2013-07-31 08:52:00,71.1,63.5,29.95,SE,130,3.1,3.8,77,0.00,,BKN068,0.00,VWS V13.01,2013-07-30 22:52:00,
2013-07-31 08:57:00,71.9,63.9,29.95,SSW,197,1.9,3.8,76,0.00,,BKN068,0.00,VWS V13.01,2013-07-30 22:57:00,
2013-07-31 09:02:00,72.5,63.8,29.95,South,171,1.9,3.8,74,0.00,,SCT068,0.00,VWS V13.01,2013-07-30 23:02:00,
2013-07-31 09:15:00,72.9,63.3,29.95,SE,135,4.4,15.0,72,0.00,,SCT068,0.00,VWS V13.01,2013-07-30 23:15:00,
2013-07-31 09:30:00,73.9,63.5,29.96,SE,135,4.4,11.3,70,0.00,,SCT068,0.00,VWS V13.01,2013-07-30 23:30:00,
2013-07-31 09:45:00,74.6,64.2,29.96,SE,135,4.4,18.7,70,0.00,,SCT068,0.00,VWS V13.01,2013-07-30 23:45:00,
2013-07-31 10:00:00,74.8,63.5,29.96,SE,135,4.4,12.5,68,0.00,,SCT068,0.00,VWS V13.01,2013-07-31 00:00:00,
2013-07-31 10:15:00,75.7,63.5,29.96,SE,135,4.4,18.7,66,0.00,,SCT068,0.00,VWS V13.01,2013-07-31 00:15:00,
2013-07-31 10:30:00,76.0,63.0,29.95,SE,135,5.6,13.7,64,0.00,,SCT068,0.00,VWS V13.01,2013-07-31 00:30:00,
2013-07-31 10:45:00,76.9,62.0,29.95,SE,135,5.6,13.7,60,0.00,,SCT068,0.00,VWS V13.01,2013-07-31 00:45:00,
2013-07-31 11:00:00,76.5,61.6,29.95,SE,135,6.9,16.3,60,0.00,,SCT068,0.00,VWS V13.01,2013-07-31 01:00:00,
2013-07-31 11:15:00,77.1,61.2,29.94,SE,135,6.9,15.0,58,0.00,,SCT068,0.00,VWS V13.01,2013-07-31 01:15:00,
2013-07-31 11:30:00,78.1,61.1,29.94,SE,135,5.6,17.5,56,0.00,,SCT068,0.00,VWS V13.01,2013-07-31 01:30:00,
2013-07-31 11:45:00,78.4,60.9,29.94,SE,135,5.6,15.0,55,0.00,,SCT068,0.00,VWS V13.01,2013-07-31 01:45:00,
2013-07-31 12:00:00,78.5,61.0,29.93,SE,135,5.6,13.7,55,0.00,,SCT068,0.00,VWS V13.01,2013-07-31 02:00:00,
2013-07-31 12:15:00,78.5,61.5,29.92,SE,135,4.4,11.3,56,0.00,,SCT068,0.00,VWS V13.01,2013-07-31 02:15:00,
2013-07-31 12:30:00,79.1,60.5,29.91,SE,135,6.9,13.7,53,0.00,,SCT068,0.00,VWS V13.01,2013-07-31 02:30:00,
2013-07-31 12:45:00,80.0,61.9,29.91,SE,135,5.6,15.0,54,0.00,,SCT068,0.00,VWS V13.01,2013-07-31 02:45:00,
2013-07-31 13:00:00,79.3,60.7,29.90,SE,135,8.1,21.3,53,0.00,,SCT068,0.00,VWS V13.01,2013-07-31 03:00:00,
2013-07-31 13:15:00,79.0,60.4,29.89,SE,135,6.9,21.3,53,0.00,,SCT068,0.00,VWS V13.01,2013-07-31 03:15:00,
2013-07-31 13:30:00,79.4,59.2,29.89,SE,135,5.6,15.0,50,0.00,,SCT068,0.00,VWS V13.01,2013-07-31 03:30:00,
2013-07-31 13:45:00,79.7,60.5,29.88,SE,135,6.9,16.3,52,0.00,,SCT068,0.00,VWS V13.01,2013-07-31 03:45:00,
2013-07-31 14:00:00,79.2,61.7,29.88,SE,135,8.1,20.0,55,0.00,,SCT068,0.00,VWS V13.01,2013-07-31 04:00:00,
2013-07-31 14:15:00,78.7,60.2,29.87,SE,135,8.1,17.5,53,0.00,,SCT068,0.00,VWS V13.01,2013-07-31 04:15:00,
2013-07-31 14:30:00,78.6,60.1,29.87,SE,135,6.9,17.5,53,0.00,,SCT068,0.00,VWS V13.01,2013-07-31 04:30:00,
2013-07-31 14:45:00,78.7,59.6,29.87,ESE,112,5.6,13.7,52,0.00,,SCT068,0.00,VWS V13.01,2013-07-31 04:45:00,
2013-07-31 15:00:00,79.0,59.3,29.87,SE,135,5.6,18.7,51,0.00,,SCT068,0.00,VWS V13.01,2013-07-31 05:00:00,
2013-07-31 15:15:00,78.7,58.0,29.87,SE,135,6.9,15.0,49,0.00,,SCT068,0.00,VWS V13.01,2013-07-31 05:15:00,
2013-07-31 15:30:00,78.9,57.6,29.86,SE,135,5.6,11.3,48,0.00,,SCT068,0.00,VWS V13.01,2013-07-31 05:30:00,
2013-07-31 15:45:00,78.7,62.7,29.87,SE,135,6.9,21.3,58,0.00,,SCT068,0.00,VWS V13.01,2013-07-31 05:45:00,
2013-07-31 16:00:00,76.6,63.1,29.87,ESE,112,6.9,13.7,63,0.00,,SCT068,0.00,VWS V13.01,2013-07-31 06:00:00,
2013-07-31 16:15:00,75.8,61.9,29.87,SE,135,5.6,13.7,62,0.00,,SCT068,0.00,VWS V13.01,2013-07-31 06:15:00,
2013-07-31 16:30:00,75.7,61.3,29.87,SE,135,6.9,17.5,61,0.00,,SCT068,0.00,VWS V13.01,2013-07-31 06:30:00,
2013-07-31 16:45:00,75.5,61.6,29.88,ESE,112,5.6,16.3,62,0.00,,SCT068,0.00,VWS V13.01,2013-07-31 06:45:00,
2013-07-31 17:00:00,75.4,61.9,29.89,SE,135,4.4,15.0,63,0.00,,SCT068,0.00,VWS V13.01,2013-07-31 07:00:00,
2013-07-31 17:15:00,75.5,60.7,29.89,SE,135,4.4,10.0,60,0.00,,SCT068,0.00,VWS V13.01,2013-07-31 07:15:00,
2013-07-31 17:30:00,74.9,60.6,29.89,SE,135,5.6,13.7,61,0.00,,SCT068,0.00,VWS V13.01,2013-07-31 07:30:00,
2013-07-31 17:45:00,73.6,60.7,29.89,SE,135,5.6,13.7,64,0.00,,SCT068,0.00,VWS V13.01,2013-07-31 07:45:00,
2013-07-31 18:00:00,72.7,61.5,29.90,SE,135,4.4,13.7,68,0.00,,SCT068,0.00,VWS V13.01,2013-07-31 08:00:00,
2013-07-31 18:15:00,71.8,61.9,29.90,SE,135,5.6,17.5,71,0.00,,SCT068,0.00,VWS V13.01,2013-07-31 08:15:00,
2013-07-31 18:30:00,71.1,61.6,29.91,SE,135,4.4,12.5,72,0.00,,SCT068,0.00,VWS V13.01,2013-07-31 08:30:00,
2013-07-31 18:45:00,70.5,61.8,29.91,SE,135,3.1,11.3,74,0.00,,SCT068,0.00,VWS V13.01,2013-07-31 08:45:00,
2013-07-31 19:00:00,69.8,61.5,29.92,SE,135,0.6,5.0,75,0.00,,SCT068,0.00,VWS V13.01,2013-07-31 09:00:00,
2013-07-31 19:15:00,68.8,61.3,29.92,SE,135,0.6,5.0,77,0.00,,SCT068,0.00,VWS V13.01,2013-07-31 09:15:00,
2013-07-31 19:30:00,68.5,61.7,29.93,SE,135,1.9,3.8,79,0.00,,SCT068,0.00,VWS V13.01,2013-07-31 09:30:00,
2013-07-31 19:45:00,68.1,61.7,29.93,SE,135,0.6,2.5,80,0.00,,SCT068,0.00,VWS V13.01,2013-07-31 09:45:00,
2013-07-31 20:00:00,67.7,61.3,29.94,SE,135,1.9,6.2,80,0.00,,SCT068,0.00,VWS V13.01,2013-07-31 10:00:00,
2013-07-31 20:15:00,67.5,60.8,29.94,SE,135,3.1,7.5,79,0.00,,SCT068,0.00,VWS V13.01,2013-07-31 10:15:00,
2013-07-31 20:30:00,67.4,60.7,29.94,SE,135,1.9,7.5,79,0.00,,SCT068,0.00,VWS V13.01,2013-07-31 10:30:00,
2013-07-31 20:45:00,67.1,60.7,29.95,SE,135,1.9,7.5,80,0.00,,SCT068,0.00,VWS V13.01,2013-07-31 10:45:00,
2013-07-31 21:00:00,66.7,60.7,29.95,SE,135,1.9,5.0,81,0.00,,SCT068,0.00,VWS V13.01,2013-07-31 11:00:00,
2013-07-31 21:15:00,66.2,60.2,29.96,SE,135,1.9,5.0,81,0.00,,SCT068,0.00,VWS V13.01,2013-07-31 11:15:00,
2013-07-31 21:30:00,66.1,60.1,29.96,SE,135,1.9,5.0,81,0.00,,SCT068,0.00,VWS V13.01,2013-07-31 11:30:00,
2013-07-31 21:45:00,65.7,59.7,29.96,SE,135,1.9,3.8,81,0.00,,SCT068,0.00,VWS V13.01,2013-07-31 11:45:00,
2013-07-31 22:00:00,65.5,59.5,29.95,SE,135,1.9,3.8,81,0.00,,SCT068,0.00,VWS V13.01,2013-07-31 12:00:00,
2013-07-31 22:15:00,65.6,59.3,29.95,SE,135,3.1,7.5,80,0.00,,SCT068,0.00,VWS V13.01,2013-07-31 12:15:00,
2013-07-31 22:30:00,65.7,59.4,29.95,SE,135,1.9,5.0,80,0.00,,SCT068,0.00,VWS V13.01,2013-07-31 12:30:00,
2013-07-31 22:45:00,65.2,58.9,29.95,SE,135,0.6,1.3,80,0.00,,SCT068,0.00,VWS V13.01,2013-07-31 12:45:00,
2013-07-31 23:00:00,64.9,57.9,29.95,SE,135,1.9,2.5,78,0.00,,SCT068,0.00,VWS V13.01,2013-07-31 13:00:00,
2013-07-31 23:15:00,64.9,57.5,29.95,SE,135,0.6,2.5,77,0.00,,SCT068,0.00,VWS V13.01,2013-07-31 13:15:00,
2013-07-31 23:30:00,64.2,57.6,29.95,SE,135,0.6,1.3,79,0.00,,SCT068,0.00,VWS V13.01,2013-07-31 13:30:00,
2013-07-31 23:45:00,63.4,57.1,29.95,SE,135,0.6,2.5,80,0.00,,SCT068,0.00,VWS V13.01,2013-07-31 13:45:00,